Weather History for KLFT - April, 2013

Change the Weather History Date:

Thursday, April 4, 2013

  Actual Average Record
Temperature  
Mean Temperature 52 °F 66 °F  
Max Temperature 56 °F 77 °F 89 °F (1893)
Min Temperature 48 °F 56 °F 33 °F (1915)
Degree Days  
Heating Degree Days 13 2  
Month to date heating degree days 19 11  
Since 1 July heating degree days 1264 1391  
Cooling Degree Days 0 4  
Month to date cooling degree days 4 14  
Year to date cooling degree days 64 109  
Growing Degree Days 2 (Base 50)    
Moisture  
Dew Point 46 °F    
Average Humidity 82    
Maximum Humidity 93    
Minimum Humidity 71    
Precipitation  
Precipitation 0.00 in 0.12 in 3.01 in (1952)
Month to date precipitation 1.77 0.46  
Year to date precipitation 21.84 14.37  
Snow  
Snow 0.00 in 0.00 in 0.00 in ()
Month to date snowfall 0.0 0.0  
Since 1 July snowfall 0.0 T  
Snow Depth 0.00 in    
Sea Level Pressure  
Sea Level Pressure 30.03 in    
Wind  
Wind Speed 10 mph (NW)    
Max Wind Speed 17 mph    
Max Gust Speed 24 mph    
Visibility 7 miles    
Events      
T = Trace of Precipitation, MM = Missing Value Source: NWS Daily Summary

Daily Weather History Graph

Daily Weather History Graph

Search for Another Location

Airport or City:

Trip Planner

Search our weather history database for the weather conditions in past years. The results will help you decide how hot, cold, wet, or windy it might be!

Date:

Astronomy

Apr. 04, 2013 Rise Set
Actual Time 6:53 AM CDT 7:28 PM CDT
Civil Twilight 6:29 AM CDT 7:52 PM CDT
Nautical Twilight 6:00 AM CDT 8:21 PM CDT
Astronomical Twilight 5:31 AM CDT 8:50 PM CDT
Moon 2:56 AM CDT (4/4) 2:09 PM CDT (4/4)
Length of Visible Light 13h 23m
Length of Day
12h 35m
Waning Crescent, 33% of the Moon is Illuminated
Apr 4
Waning Crescent
Apr 10
New
Apr 18
First Quarter
Apr 25
Full
May 2
Last Quarter

Hourly Weather History & Observations

Time (CDT) Temp. Dew Point Humidity Pressure Visibility Wind Dir Wind Speed Gust Speed Precip Events Conditions
12:53 AM 52.0 °F 48.9 °F 89% 30.00 in 10.0 mi NNW 6.9 mph - N/A   Overcast
1:53 AM 50.0 °F 48.9 °F 96% 29.96 in 3.0 mi Variable 6.9 mph - N/A   Overcast
2:53 AM 50.0 °F 48.0 °F 93% 29.98 in 4.0 mi NNW 9.2 mph - N/A   Overcast
3:53 AM 50.0 °F 46.9 °F 89% 29.98 in 6.0 mi North 9.2 mph - N/A   Overcast
4:35 AM 48.2 °F 48.2 °F 100% 29.98 in 2.5 mi NNW 6.9 mph - N/A   Overcast
4:53 AM 48.9 °F 46.9 °F 93% 29.98 in 2.5 mi NNW 6.9 mph - N/A   Overcast
5:04 AM 48.2 °F 46.4 °F 93% 29.98 in 2.5 mi NNW 6.9 mph - N/A   Overcast
5:50 AM 48.2 °F 46.4 °F 93% 29.99 in 3.0 mi NW 8.1 mph - 0.01 in   Overcast
5:53 AM 48.9 °F 46.9 °F 93% 30.00 in 2.0 mi NW 8.1 mph - 0.01 in   Overcast
6:53 AM 48.9 °F 46.9 °F 93% 30.01 in 3.0 mi NW 8.1 mph - 0.01 in   Overcast
7:53 AM 48.9 °F 46.9 °F 93% 30.04 in 3.0 mi NW 8.1 mph - N/A   Overcast
8:53 AM 48.9 °F 46.9 °F 93% 30.04 in 10.0 mi NNW 8.1 mph - N/A   Overcast
9:53 AM 48.9 °F 46.9 °F 93% 30.07 in 2.0 mi NW 8.1 mph - N/A   Overcast
10:01 AM 48.2 °F 46.4 °F 93% 30.07 in 1.5 mi NW 10.4 mph - N/A   Overcast
10:16 AM 48.2 °F 46.4 °F 93% 30.08 in 3.0 mi NW 9.2 mph - N/A   Overcast
10:53 AM 50.0 °F 46.9 °F 89% 30.07 in 4.0 mi WNW 9.2 mph - N/A   Overcast
11:06 AM 50.0 °F 46.4 °F 87% 30.08 in 5.0 mi WNW 10.4 mph - N/A   Overcast
11:53 AM 52.0 °F 46.9 °F 83% 30.07 in 10.0 mi NW 6.9 mph - N/A   Overcast
12:01 PM 51.8 °F 46.4 °F 82% 30.07 in 10.0 mi WNW 6.9 mph - N/A   Overcast
12:33 PM 53.6 °F 46.4 °F 77% 30.06 in 10.0 mi NW 6.9 mph - N/A   Overcast
12:53 PM 53.1 °F 46.0 °F 77% 30.06 in 10.0 mi NW 11.5 mph - N/A   Overcast
1:24 PM 53.6 °F 46.4 °F 77% 30.05 in 10.0 mi NW 11.5 mph - N/A   Overcast
1:53 PM 55.0 °F 46.9 °F 74% 30.03 in 10.0 mi NW 8.1 mph - N/A   Mostly Cloudy
2:53 PM 55.0 °F 46.0 °F 72% 30.00 in 10.0 mi NW 9.2 mph - N/A   Overcast
3:53 PM 54.0 °F 46.0 °F 75% 30.00 in 10.0 mi NW 11.5 mph - N/A   Overcast
4:53 PM 54.0 °F 46.0 °F 75% 30.00 in 10.0 mi NNW 12.7 mph - N/A   Overcast
5:53 PM 53.1 °F 45.0 °F 74% 30.02 in 10.0 mi NNW 13.8 mph 20.7 mph N/A   Overcast
6:53 PM 52.0 °F 44.1 °F 74% 30.02 in 10.0 mi NNW 15.0 mph 19.6 mph N/A   Overcast
7:53 PM 51.1 °F 43.0 °F 74% 30.04 in 10.0 mi NNW 13.8 mph - N/A   Overcast
8:53 PM 50.0 °F 43.0 °F 77% 30.06 in 10.0 mi NNW 11.5 mph - N/A   Overcast
9:53 PM 50.0 °F 42.1 °F 74% 30.09 in 10.0 mi North 11.5 mph - N/A   Overcast
10:30 PM 48.2 °F 42.8 °F 82% 30.10 in 9.0 mi NNW 12.7 mph 20.7 mph N/A   Overcast
10:53 PM 48.0 °F 44.1 °F 86% 30.10 in 9.0 mi NNW 12.7 mph - N/A   Overcast
11:53 PM 48.9 °F 43.0 °F 80% 30.10 in 10.0 mi NNW 9.2 mph - N/A   Overcast